Regional Weather Roundup
Issued by NWS

Home | Current Version | Previous Version | Graphics & Text | Print | Product List | Glossary On
Versions: 1 2 3 4 5 6 7 8 9 10 11 12 13 14 15 16 17 18 19 20 21 22 23 24 25 26 27 28 29 30 31 32 33 34 35 36 37 38 39 40 41 42 43 44 45 46 47 48 49 50
000
ASUS43 KLSX 252110
RWRMO

WEATHER SUMMARY FOR MISSOURI
NATIONAL WEATHER SERVICE SPRINGFIELD MO
400 PM CDT WED MAY 25 2016

NOTE: "FAIR" INDICATES FEW OR NO CLOUDS BELOW 12,000 FEET WITH NO
       SIGNIFICANT WEATHER AND/OR OBSTRUCTIONS TO VISIBILITY.
       CURRENT SKY AND/OR WEATHER CONDITIONS ARE NOT AVAILABLE FOR
       CHILLICOTHE AND FARMINGTON.

MOZ001>031-035>038-043-044-053-054-252200-
...NORTHERN AND WESTERN MISSOURI...

CITY           SKY/WX    TMP DP  RH WIND       PRES   REMARKS
KANSAS CTY INT CLOUDY    81  65  58 S18       29.87F
KANSAS C DTWN  MOSUNNY   84  65  52 S17G25    29.86F
LEE`S SUMMIT   SUNNY     81  65  58 S15G22    29.89F
ST JOSEPH      PTSUNNY   81  65  58 S15       29.86F
CHILLICOTHE      N/A     84  63  49 MISG      29.87F
KIRKSVILLE     MOSUNNY   81  64  56 SW13      29.91S

$$
MOZ066>068-077>081-088>096-101>105-252200-
...SOUTHWEST MISSOURI...

CITY           SKY/WX    TMP DP  RH WIND       PRES   REMARKS
SPRINGFIELD    SUNNY     82  62  50 S15       29.95F
JOPLIN         PTSUNNY   83  69  62 S16       29.92F
BRANSON        MOSUNNY   79  66  65 SE9       29.99F

$$
MOZ032>034-039>042-045>050-055>058-069>072-252200-
...CENTRAL MISSOURI...

CITY           SKY/WX    TMP DP  RH WIND       PRES   REMARKS
COLUMBIA       MOSUNNY   83  61  47 W5        29.92F
JEFFERSON CITY MOSUNNY   83  61  47 S5        29.92F
ROLLA          SUNNY     77  63  61 S3        29.95F
SEDALIA        SUNNY     83  61  47 S15G22    29.92F
WHITEMAN AFB   MOSUNNY   82  65  55 S12G20    29.88F
WARRENSBURG    SUNNY     81  63  54 S10       29.89F

$$
MOZ051-052-059>065-252200-
...EAST CENTRAL MISSOURI...

CITY           SKY/WX    TMP DP  RH WIND       PRES   REMARKS
ST LOUIS INTL  CLOUDY    84  64  50 S15       29.95F
SPIRIT OF STL  CLOUDY    83  66  56 S9        29.94F
ST CHARLES     PTSUNNY   83  68  60 S13       29.93F

$$
MOZ072>076-082>087-097>100-106>115-252200-
...SOUTH CENTRAL AND SOUTHEAST MISSOURI...

CITY           SKY/WX    TMP DP  RH WIND       PRES   REMARKS
CAPE GIRARDEAU CLOUDY    79  68  69 SE13      29.92F
FARMINGTON     LGT RAIN  75  67  76 VRB5      29.97F
POPLAR BLUFF   CLOUDY    75  67  76 S5        29.97S
WEST PLAINS    SUNNY     75  63  66 S8        30.01S

$$




USA.gov is the U.S. government's official web portal to all federal, state and local government web resources and services.